Time,TemperatureF,DewpointF,PressureIn,WindDirection,WindDirectionDegrees,WindSpeedMPH,WindSpeedGustMPH,Humidity,HourlyPrecipIn,Conditions,Clouds,dailyrainin,SoftwareType,DateUTC
2013-03-01 00:02:00,51.4,13.6,30.35,ESE,112,0.0,3.4,22,0.00,,,0.00,WUHU21623XXSP,2013-03-01 08:02:00,
2013-03-01 00:07:00,51.4,13.6,30.35,SE,135,3.6,3.8,22,0.00,,,0.00,WUHU21623XXSP,2013-03-01 08:07:00,
2013-03-01 00:12:00,52.0,13.1,30.35,SE,135,2.9,7.8,21,0.00,,,0.00,WUHU21623XXSP,2013-03-01 08:12:00,
2013-03-01 00:17:00,52.0,13.1,30.35,East,90,6.0,8.3,21,0.00,,,0.00,WUHU21623XXSP,2013-03-01 08:17:00,
2013-03-01 00:22:00,52.0,13.1,30.35,East,90,9.6,9.6,21,0.00,,,0.00,WUHU21623XXSP,2013-03-01 08:22:00,
2013-03-01 00:27:00,52.0,13.1,30.35,East,90,0.0,9.6,21,0.00,,,0.00,WUHU21623XXSP,2013-03-01 08:27:00,
2013-03-01 00:32:00,51.8,13.0,30.35,East,90,0.0,4.9,21,0.00,,,0.00,WUHU21623XXSP,2013-03-01 08:32:00,
2013-03-01 00:37:00,51.6,12.8,30.35,East,90,0.0,5.4,21,0.00,,,0.00,WUHU21623XXSP,2013-03-01 08:37:00,
2013-03-01 00:42:00,51.6,12.8,30.35,East,90,5.1,5.4,21,0.00,,,0.00,WUHU21623XXSP,2013-03-01 08:42:00,
2013-03-01 00:47:00,51.6,12.8,30.35,East,90,0.0,5.1,21,0.00,,,0.00,WUHU21623XXSP,2013-03-01 08:47:00,
2013-03-01 00:52:00,51.4,12.6,30.35,ESE,112,0.0,4.9,21,0.00,,,0.00,WUHU21623XXSP,2013-03-01 08:52:00,
2013-03-01 00:57:00,51.6,12.8,30.35,ENE,67,5.6,9.4,21,0.00,,,0.00,WUHU21623XXSP,2013-03-01 08:57:00,
2013-03-01 01:02:00,51.6,12.8,30.35,East,90,0.0,9.4,21,0.00,,,0.00,WUHU21623XXSP,2013-03-01 09:02:00,
2013-03-01 01:07:00,51.6,12.8,30.35,East,90,0.0,7.4,21,0.00,,,0.00,WUHU21623XXSP,2013-03-01 09:07:00,
2013-03-01 01:12:00,51.8,13.0,30.35,SE,135,0.0,7.2,21,0.00,,,0.00,WUHU21623XXSP,2013-03-01 09:12:00,
2013-03-01 01:17:00,52.0,13.1,30.35,ESE,112,2.7,12.8,21,0.00,,,0.00,WUHU21623XXSP,2013-03-01 09:17:00,
2013-03-01 01:22:00,52.3,13.4,30.35,ENE,67,1.3,12.8,21,0.00,,,0.00,WUHU21623XXSP,2013-03-01 09:22:00,
2013-03-01 01:27:00,52.5,13.5,30.35,ESE,112,0.0,12.8,21,0.00,,,0.00,WUHU21623XXSP,2013-03-01 09:27:00,
2013-03-01 01:32:00,52.5,13.5,30.35,ESE,112,3.8,11.2,21,0.00,,,0.00,WUHU21623XXSP,2013-03-01 09:32:00,
2013-03-01 01:37:00,52.5,13.5,30.35,ENE,67,5.6,10.5,21,0.00,,,0.00,WUHU21623XXSP,2013-03-01 09:37:00,
2013-03-01 01:42:00,52.5,13.5,30.34,ESE,112,0.0,10.5,21,0.00,,,0.00,WUHU21623XXSP,2013-03-01 09:42:00,
2013-03-01 01:47:00,52.3,13.4,30.34,ESE,112,0.0,7.8,21,0.00,,,0.00,WUHU21623XXSP,2013-03-01 09:47:00,
2013-03-01 01:52:00,52.5,13.5,30.34,East,90,5.8,7.2,21,0.00,,,0.00,WUHU21623XXSP,2013-03-01 09:52:00,
2013-03-01 01:57:00,52.7,13.7,30.34,ESE,112,3.4,8.7,21,0.00,,,0.00,WUHU21623XXSP,2013-03-01 09:57:00,
2013-03-01 02:02:00,52.5,13.5,30.34,East,90,0.0,8.7,21,0.00,,,0.00,WUHU21623XXSP,2013-03-01 10:02:00,
2013-03-01 02:07:00,52.3,13.4,30.34,East,90,0.0,6.3,21,0.00,,,0.00,WUHU21623XXSP,2013-03-01 10:07:00,
2013-03-01 02:12:00,52.3,13.4,30.34,East,90,4.0,6.3,21,0.00,,,0.00,WUHU21623XXSP,2013-03-01 10:12:00,
2013-03-01 02:17:00,52.3,13.4,30.34,ESE,112,0.0,11.0,21,0.00,,,0.00,WUHU21623XXSP,2013-03-01 10:17:00,
2013-03-01 02:22:00,52.9,13.8,30.34,ESE,112,4.3,13.2,21,0.00,,,0.00,WUHU21623XXSP,2013-03-01 10:22:00,
2013-03-01 02:27:00,52.9,13.8,30.34,East,90,0.0,13.2,21,0.00,,,0.00,WUHU21623XXSP,2013-03-01 10:27:00,
2013-03-01 02:32:00,52.7,13.7,30.34,ESE,112,3.6,4.3,21,0.00,,,0.00,WUHU21623XXSP,2013-03-01 10:32:00,
2013-03-01 02:37:00,52.5,13.5,30.34,ESE,112,3.1,3.6,21,0.00,,,0.00,WUHU21623XXSP,2013-03-01 10:37:00,
2013-03-01 02:42:00,52.5,13.5,30.34,ESE,112,0.0,7.6,21,0.00,,,0.00,WUHU21623XXSP,2013-03-01 10:42:00,
2013-03-01 02:47:00,52.3,13.4,30.34,SE,135,0.0,7.6,21,0.00,,,0.00,WUHU21623XXSP,2013-03-01 10:47:00,
2013-03-01 02:52:00,52.5,13.5,30.34,ESE,112,0.0,3.8,21,0.00,,,0.00,WUHU21623XXSP,2013-03-01 10:52:00,
2013-03-01 02:57:00,52.3,13.4,30.34,ESE,112,0.0,3.8,21,0.00,,,0.00,WUHU21623XXSP,2013-03-01 10:57:00,
2013-03-01 03:03:00,52.3,13.4,30.34,East,90,2.0,5.8,21,0.00,,,0.00,WUHU21623XXSP,2013-03-01 11:03:00,
2013-03-01 03:08:00,52.2,13.2,30.34,East,90,0.0,8.5,21,0.00,,,0.00,WUHU21623XXSP,2013-03-01 11:08:00,
2013-03-01 03:13:00,52.3,13.4,30.34,ESE,112,0.0,8.5,21,0.00,,,0.00,WUHU21623XXSP,2013-03-01 11:13:00,
2013-03-01 03:18:00,52.3,13.4,30.34,East,90,0.0,7.2,21,0.00,,,0.00,WUHU21623XXSP,2013-03-01 11:18:00,
2013-03-01 03:23:00,52.3,13.4,30.34,East,90,0.0,7.2,21,0.00,,,0.00,WUHU21623XXSP,2013-03-01 11:23:00,
2013-03-01 03:28:00,52.0,13.1,30.34,East,90,0.0,6.3,21,0.00,,,0.00,WUHU21623XXSP,2013-03-01 11:28:00,
2013-03-01 03:33:00,51.4,12.6,30.34,ESE,112,0.0,0.4,21,0.00,,,0.00,WUHU21623XXSP,2013-03-01 11:33:00,
2013-03-01 03:38:00,51.3,12.5,30.34,ESE,112,0.0,0.4,21,0.00,,,0.00,WUHU21623XXSP,2013-03-01 11:38:00,
2013-03-01 03:43:00,50.7,13.0,30.34,ESE,112,0.0,5.1,22,0.00,,,0.00,WUHU21623XXSP,2013-03-01 11:43:00,
2013-03-01 03:48:00,51.3,12.5,30.34,ESE,112,3.4,7.4,21,0.00,,,0.00,WUHU21623XXSP,2013-03-01 11:48:00,
2013-03-01 03:53:00,51.6,12.8,30.34,SSE,157,6.9,8.3,21,0.00,,,0.00,WUHU21623XXSP,2013-03-01 11:53:00,
2013-03-01 03:58:00,52.2,13.2,30.34,ESE,112,5.4,8.3,21,0.00,,,0.00,WUHU21623XXSP,2013-03-01 11:58:00,
2013-03-01 04:03:00,52.3,13.4,30.34,ESE,112,0.0,6.7,21,0.00,,,0.00,WUHU21623XXSP,2013-03-01 12:03:00,
2013-03-01 04:08:00,52.2,13.2,30.34,SE,135,0.0,6.5,21,0.00,,,0.00,WUHU21623XXSP,2013-03-01 12:08:00,
2013-03-01 04:13:00,52.0,13.1,30.34,East,90,0.0,6.5,21,0.00,,,0.00,WUHU21623XXSP,2013-03-01 12:13:00,
2013-03-01 04:18:00,52.0,13.1,30.34,East,90,0.0,5.4,21,0.00,,,0.00,WUHU21623XXSP,2013-03-01 12:18:00,
2013-03-01 04:23:00,51.8,13.0,30.34,East,90,0.0,4.9,21,0.00,,,0.00,WUHU21623XXSP,2013-03-01 12:23:00,
2013-03-01 04:28:00,51.8,13.0,30.34,ESE,112,2.5,4.9,21,0.00,,,0.00,WUHU21623XXSP,2013-03-01 12:28:00,
2013-03-01 04:33:00,51.6,12.8,30.34,ESE,112,0.0,7.4,21,0.00,,,0.00,WUHU21623XXSP,2013-03-01 12:33:00,
2013-03-01 04:38:00,51.6,12.8,30.34,ESE,112,0.0,7.4,21,0.00,,,0.00,WUHU21623XXSP,2013-03-01 12:38:00,
2013-03-01 04:43:00,51.6,12.8,30.34,SE,135,2.7,3.4,21,0.00,,,0.00,WUHU21623XXSP,2013-03-01 12:43:00,
2013-03-01 04:48:00,51.6,12.8,30.34,ESE,112,0.0,6.3,21,0.00,,,0.00,WUHU21623XXSP,2013-03-01 12:48:00,
2013-03-01 04:53:00,51.4,12.6,30.34,ESE,112,0.0,6.3,21,0.00,,,0.00,WUHU21623XXSP,2013-03-01 12:53:00,
2013-03-01 04:58:00,51.3,12.5,30.35,ESE,112,0.0,5.4,21,0.00,,,0.00,WUHU21623XXSP,2013-03-01 12:58:00,
2013-03-01 05:03:00,51.1,12.4,30.35,ESE,112,0.0,0.0,21,0.00,,,0.00,WUHU21623XXSP,2013-03-01 13:03:00,
2013-03-01 05:08:00,51.1,12.4,30.35,ESE,112,0.0,0.0,21,0.00,,,0.00,WUHU21623XXSP,2013-03-01 13:08:00,
2013-03-01 05:13:00,50.7,12.1,30.35,ESE,112,0.0,0.0,21,0.00,,,0.00,WUHU21623XXSP,2013-03-01 13:13:00,
2013-03-01 05:18:00,50.7,13.0,30.35,ESE,112,0.0,0.0,22,0.00,,,0.00,WUHU21623XXSP,2013-03-01 13:18:00,
2013-03-01 05:23:00,50.5,12.8,30.35,ESE,112,0.0,0.0,22,0.00,,,0.00,WUHU21623XXSP,2013-03-01 13:23:00,
2013-03-01 05:28:00,50.7,13.0,30.36,SE,135,0.0,4.5,22,0.00,,,0.00,WUHU21623XXSP,2013-03-01 13:28:00,
2013-03-01 05:33:00,50.7,13.0,30.36,SE,135,0.0,6.0,22,0.00,,,0.00,WUHU21623XXSP,2013-03-01 13:33:00,
2013-03-01 05:38:00,50.7,13.0,30.36,ESE,112,0.0,6.0,22,0.00,,,0.00,WUHU21623XXSP,2013-03-01 13:38:00,
2013-03-01 05:43:00,50.7,13.0,30.36,ESE,112,0.0,3.6,22,0.00,,,0.00,WUHU21623XXSP,2013-03-01 13:43:00,
2013-03-01 05:48:00,50.7,13.0,30.36,ESE,112,0.0,4.3,22,0.00,,,0.00,WUHU21623XXSP,2013-03-01 13:48:00,
2013-03-01 05:53:00,50.7,13.0,30.36,ESE,112,0.0,4.3,22,0.00,,,0.00,WUHU21623XXSP,2013-03-01 13:53:00,
2013-03-01 05:58:00,50.7,13.0,30.36,ESE,112,0.0,4.3,22,0.00,,,0.00,WUHU21623XXSP,2013-03-01 13:58:00,
2013-03-01 06:03:00,50.7,13.0,30.36,SE,135,0.0,4.3,22,0.00,,,0.00,WUHU21623XXSP,2013-03-01 14:03:00,
2013-03-01 06:08:00,50.5,12.8,30.37,ESE,112,0.0,2.2,22,0.00,,,0.00,WUHU21623XXSP,2013-03-01 14:08:00,
2013-03-01 06:13:00,50.4,12.7,30.37,ESE,112,0.0,2.2,22,0.00,,,0.00,WUHU21623XXSP,2013-03-01 14:13:00,
2013-03-01 06:18:00,50.2,12.6,30.37,ESE,112,0.0,3.4,22,0.00,,,0.00,WUHU21623XXSP,2013-03-01 14:18:00,
2013-03-01 06:23:00,50.2,12.6,30.37,ESE,112,0.0,6.3,22,0.00,,,0.00,WUHU21623XXSP,2013-03-01 14:23:00,
2013-03-01 06:28:00,50.4,12.7,30.37,ESE,112,0.0,6.3,22,0.00,,,0.00,WUHU21623XXSP,2013-03-01 14:28:00,
2013-03-01 06:33:00,50.5,12.8,30.37,East,90,0.0,6.0,22,0.00,,,0.00,WUHU21623XXSP,2013-03-01 14:33:00,
2013-03-01 06:38:00,50.5,12.8,30.37,East,90,0.0,4.5,22,0.00,,,0.00,WUHU21623XXSP,2013-03-01 14:38:00,
2013-03-01 06:43:00,50.5,12.8,30.37,ESE,112,0.0,2.5,22,0.00,,,0.00,WUHU21623XXSP,2013-03-01 14:43:00,
2013-03-01 06:48:00,50.7,13.0,30.37,ESE,112,0.0,6.3,22,0.00,,,0.00,WUHU21623XXSP,2013-03-01 14:48:00,
2013-03-01 06:53:00,50.9,13.2,30.37,East,90,3.4,6.3,22,0.00,,,0.00,WUHU21623XXSP,2013-03-01 14:53:00,
2013-03-01 06:58:00,51.4,13.6,30.37,ESE,112,0.0,4.3,22,0.00,,,0.00,WUHU21623XXSP,2013-03-01 14:58:00,
2013-03-01 07:03:00,51.6,13.7,30.38,East,90,0.0,3.4,22,0.00,,,0.00,WUHU21623XXSP,2013-03-01 15:03:00,
2013-03-01 07:08:00,52.3,13.4,30.38,ESE,112,2.0,6.7,21,0.00,,,0.00,WUHU21623XXSP,2013-03-01 15:08:00,
2013-03-01 07:13:00,52.7,13.7,30.37,East,90,3.4,6.7,21,0.00,,,0.00,WUHU21623XXSP,2013-03-01 15:13:00,
2013-03-01 07:18:00,53.1,14.0,30.37,East,90,5.4,7.8,21,0.00,,,0.00,WUHU21623XXSP,2013-03-01 15:18:00,
2013-03-01 07:23:00,53.4,14.3,30.38,East,90,0.0,7.8,21,0.00,,,0.00,WUHU21623XXSP,2013-03-01 15:23:00,
2013-03-01 07:28:00,53.8,14.6,30.38,ESE,112,0.0,6.5,21,0.00,,,0.00,WUHU21623XXSP,2013-03-01 15:28:00,
2013-03-01 07:33:00,54.3,15.0,30.38,ESE,112,0.0,6.5,21,0.00,,,0.00,WUHU21623XXSP,2013-03-01 15:33:00,
2013-03-01 07:38:00,54.9,15.5,30.38,ESE,112,9.6,9.6,21,0.00,,,0.00,WUHU21623XXSP,2013-03-01 15:38:00,
2013-03-01 07:43:00,55.2,15.9,30.38,East,90,1.3,9.6,21,0.00,,,0.00,WUHU21623XXSP,2013-03-01 15:43:00,
2013-03-01 07:48:00,55.8,15.4,30.38,ENE,67,0.0,7.8,20,0.00,,,0.00,WUHU21623XXSP,2013-03-01 15:48:00,
2013-03-01 07:53:00,56.3,15.8,30.38,East,90,0.0,7.8,20,0.00,,,0.00,WUHU21623XXSP,2013-03-01 15:53:00,
2013-03-01 07:58:00,56.8,16.2,30.38,East,90,3.1,7.6,20,0.00,,,0.00,WUHU21623XXSP,2013-03-01 15:58:00,
2013-03-01 08:03:00,57.2,16.5,30.38,East,90,0.0,8.3,20,0.00,,,0.00,WUHU21623XXSP,2013-03-01 16:03:00,
2013-03-01 08:08:00,57.7,17.0,30.38,ENE,67,0.0,8.3,20,0.00,,,0.00,WUHU21623XXSP,2013-03-01 16:08:00,
2013-03-01 08:13:00,57.9,17.1,30.38,ENE,67,0.0,6.9,20,0.00,,,0.00,WUHU21623XXSP,2013-03-01 16:13:00,
2013-03-01 08:18:00,58.3,15.8,30.38,NE,45,2.7,6.0,19,0.00,,,0.00,WUHU21623XXSP,2013-03-01 16:18:00,
2013-03-01 08:23:00,58.6,16.1,30.38,NE,45,0.0,8.3,19,0.00,,,0.00,WUHU21623XXSP,2013-03-01 16:23:00,
2013-03-01 08:28:00,58.8,16.3,30.38,ENE,67,0.0,8.3,19,0.00,,,0.00,WUHU21623XXSP,2013-03-01 16:28:00,
2013-03-01 08:33:00,59.5,16.9,30.38,NE,45,2.9,7.6,19,0.00,,,0.00,WUHU21623XXSP,2013-03-01 16:33:00,
2013-03-01 08:38:00,59.7,17.0,30.38,NE,45,6.7,6.9,19,0.00,,,0.00,WUHU21623XXSP,2013-03-01 16:38:00,
2013-03-01 08:43:00,59.9,15.7,30.38,ENE,67,0.0,9.2,18,0.00,,,0.00,WUHU21623XXSP,2013-03-01 16:43:00,
2013-03-01 08:48:00,60.4,16.1,30.38,ENE,67,3.1,9.2,18,0.00,,,0.00,WUHU21623XXSP,2013-03-01 16:48:00,
2013-03-01 08:53:00,61.0,16.6,30.38,ENE,67,0.0,9.4,18,0.00,,,0.00,WUHU21623XXSP,2013-03-01 16:53:00,
2013-03-01 08:58:00,61.3,16.9,30.37,NE,45,0.0,9.4,18,0.00,,,0.00,WUHU21623XXSP,2013-03-01 16:58:00,
2013-03-01 09:03:00,61.3,16.9,30.37,ENE,67,0.0,8.1,18,0.00,,,0.00,WUHU21623XXSP,2013-03-01 17:03:00,
2013-03-01 09:08:00,61.5,17.2,30.37,NE,45,5.1,9.4,18,0.00,,,0.00,WUHU21623XXSP,2013-03-01 17:08:00,
2013-03-01 09:13:00,61.9,17.3,30.37,NE,45,3.4,9.4,18,0.00,,,0.00,WUHU21623XXSP,2013-03-01 17:13:00,
2013-03-01 09:18:00,62.4,16.2,30.37,ENE,67,0.0,11.0,17,0.00,,,0.00,WUHU21623XXSP,2013-03-01 17:18:00,
2013-03-01 09:23:00,62.4,16.2,30.37,NE,45,4.7,11.0,17,0.00,,,0.00,WUHU21623XXSP,2013-03-01 17:23:00,
2013-03-01 09:28:00,62.8,16.4,30.37,NE,45,0.0,9.2,17,0.00,,,0.00,WUHU21623XXSP,2013-03-01 17:28:00,
2013-03-01 09:33:00,62.8,16.4,30.37,ENE,67,0.0,8.7,17,0.00,,,0.00,WUHU21623XXSP,2013-03-01 17:33:00,
2013-03-01 09:38:00,62.8,16.4,30.37,NE,45,5.6,8.7,17,0.00,,,0.00,WUHU21623XXSP,2013-03-01 17:38:00,
2013-03-01 09:44:00,63.1,16.7,30.37,East,90,8.3,11.4,17,0.00,,,0.00,WUHU21623XXSP,2013-03-01 17:44:00,
2013-03-01 09:48:00,63.3,16.9,30.37,NE,45,0.0,11.4,17,0.00,,,0.00,WUHU21623XXSP,2013-03-01 17:48:00,
2013-03-01 09:53:00,63.5,17.0,30.37,ENE,67,2.7,12.3,17,0.00,,,0.00,WUHU21623XXSP,2013-03-01 17:53:00,
2013-03-01 09:58:00,63.7,17.1,30.37,NE,45,3.4,12.3,17,0.00,,,0.00,WUHU21623XXSP,2013-03-01 17:58:00,
2013-03-01 10:04:00,64.6,17.9,30.37,ENE,67,0.0,9.8,17,0.00,,,0.00,WUHU21623XXSP,2013-03-01 18:04:00,
2013-03-01 10:09:00,64.2,17.6,30.37,NE,45,4.0,9.8,17,0.00,,,0.00,WUHU21623XXSP,2013-03-01 18:09:00,
2013-03-01 10:14:00,64.6,17.9,30.36,ENE,67,3.8,8.1,17,0.00,,,0.00,WUHU21623XXSP,2013-03-01 18:14:00,
2013-03-01 10:19:00,64.9,18.1,30.37,NE,45,0.2,12.5,17,0.00,,,0.00,WUHU21623XXSP,2013-03-01 18:19:00,
2013-03-01 10:24:00,65.1,18.3,30.37,NE,45,4.3,12.5,17,0.00,,,0.00,WUHU21623XXSP,2013-03-01 18:24:00,
2013-03-01 10:29:00,65.3,18.4,30.37,NE,45,2.9,11.0,17,0.00,,,0.00,WUHU21623XXSP,2013-03-01 18:29:00,
2013-03-01 10:34:00,65.5,18.6,30.36,NE,45,3.6,11.0,17,0.00,,,0.00,WUHU21623XXSP,2013-03-01 18:34:00,
2013-03-01 10:39:00,65.3,18.4,30.36,NE,45,5.6,13.6,17,0.00,,,0.00,WUHU21623XXSP,2013-03-01 18:39:00,
2013-03-01 10:44:00,65.3,18.4,30.36,NNE,22,8.5,13.6,17,0.00,,,0.00,WUHU21623XXSP,2013-03-01 18:44:00,
2013-03-01 10:49:00,65.8,18.9,30.36,NE,45,8.1,11.0,17,0.00,,,0.00,WUHU21623XXSP,2013-03-01 18:49:00,
2013-03-01 10:54:00,65.8,18.9,30.36,NE,45,1.1,8.9,17,0.00,,,0.00,WUHU21623XXSP,2013-03-01 18:54:00,
2013-03-01 10:59:00,66.0,19.0,30.36,NE,45,7.8,8.5,17,0.00,,,0.00,WUHU21623XXSP,2013-03-01 18:59:00,
2013-03-01 11:04:00,66.0,19.0,30.36,NE,45,3.8,9.8,17,0.00,,,0.00,WUHU21623XXSP,2013-03-01 19:04:00,
2013-03-01 11:09:00,66.7,19.6,30.35,NE,45,5.8,9.2,17,0.00,,,0.00,WUHU21623XXSP,2013-03-01 19:09:00,
2013-03-01 11:14:00,66.6,19.5,30.35,ESE,112,3.6,9.2,17,0.00,,,0.00,WUHU21623XXSP,2013-03-01 19:14:00,
2013-03-01 11:19:00,66.9,19.8,30.35,NE,45,0.0,9.6,17,0.00,,,0.00,WUHU21623XXSP,2013-03-01 19:19:00,
2013-03-01 11:24:00,67.6,20.4,30.35,East,90,0.0,11.0,17,0.00,,,0.00,WUHU21623XXSP,2013-03-01 19:24:00,
2013-03-01 11:29:00,67.8,20.6,30.35,NE,45,11.6,12.5,17,0.00,,,0.00,WUHU21623XXSP,2013-03-01 19:29:00,
2013-03-01 11:34:00,67.6,20.4,30.34,NNE,22,9.4,12.5,17,0.00,,,0.00,WUHU21623XXSP,2013-03-01 19:34:00,
2013-03-01 11:39:00,67.6,20.4,30.34,ENE,67,2.9,9.4,17,0.00,,,0.00,WUHU21623XXSP,2013-03-01 19:39:00,
2013-03-01 11:44:00,67.6,20.4,30.34,NE,45,4.3,11.6,17,0.00,,,0.00,WUHU21623XXSP,2013-03-01 19:44:00,
2013-03-01 11:49:00,67.8,20.6,30.34,NNE,22,4.9,13.4,17,0.00,,,0.00,WUHU21623XXSP,2013-03-01 19:49:00,
2013-03-01 11:54:00,68.2,22.4,30.34,ENE,67,4.3,13.4,18,0.00,,,0.00,WUHU21623XXSP,2013-03-01 19:54:00,
2013-03-01 11:59:00,67.8,20.6,30.34,NE,45,5.6,12.3,17,0.00,,,0.00,WUHU21623XXSP,2013-03-01 19:59:00,
2013-03-01 12:04:00,68.2,22.4,30.34,ENE,67,0.0,11.0,18,0.00,,,0.00,WUHU21623XXSP,2013-03-01 20:04:00,
2013-03-01 12:09:00,67.8,22.2,30.33,NNE,22,6.5,13.4,18,0.00,,,0.00,WUHU21623XXSP,2013-03-01 20:09:00,
2013-03-01 12:14:00,68.2,22.4,30.33,East,90,0.0,14.8,18,0.00,,,0.00,WUHU21623XXSP,2013-03-01 20:14:00,
2013-03-01 12:19:00,68.5,22.7,30.33,NE,45,5.4,14.8,18,0.00,,,0.00,WUHU21623XXSP,2013-03-01 20:19:00,
2013-03-01 12:24:00,68.4,21.0,30.32,NE,45,4.7,12.1,17,0.00,,,0.00,WUHU21623XXSP,2013-03-01 20:24:00,
2013-03-01 12:29:00,68.7,21.3,30.32,East,90,2.7,13.4,17,0.00,,,0.00,WUHU21623XXSP,2013-03-01 20:29:00,
2013-03-01 12:34:00,68.9,21.4,30.32,NE,45,2.2,13.4,17,0.00,,,0.00,WUHU21623XXSP,2013-03-01 20:34:00,
2013-03-01 12:39:00,68.4,22.6,30.32,NNE,22,0.0,16.3,18,0.00,,,0.00,WUHU21623XXSP,2013-03-01 20:39:00,
2013-03-01 12:44:00,68.4,22.6,30.32,NE,45,2.9,16.3,18,0.00,,,0.00,WUHU21623XXSP,2013-03-01 20:44:00,
2013-03-01 12:49:00,68.2,22.4,30.32,NE,45,0.0,14.1,18,0.00,,,0.00,WUHU21623XXSP,2013-03-01 20:49:00,
2013-03-01 12:54:00,68.2,22.4,30.32,NE,45,1.1,15.0,18,0.00,,,0.00,WUHU21623XXSP,2013-03-01 20:54:00,
2013-03-01 12:59:00,68.0,22.3,30.32,NE,45,8.5,15.0,18,0.00,,,0.00,WUHU21623XXSP,2013-03-01 20:59:00,
2013-03-01 13:04:00,68.2,22.4,30.31,NE,45,12.5,12.5,18,0.00,,,0.00,WUHU21623XXSP,2013-03-01 21:04:00,
2013-03-01 13:09:00,68.2,22.4,30.31,WSW,247,2.9,13.0,18,0.00,,,0.00,WUHU21623XXSP,2013-03-01 21:09:00,
2013-03-01 13:14:00,68.2,22.4,30.31,WSW,247,7.8,13.0,18,0.00,,,0.00,WUHU21623XXSP,2013-03-01 21:14:00,
2013-03-01 13:20:00,68.4,22.6,30.31,WSW,247,9.6,12.1,18,0.00,,,0.00,WUHU21623XXSP,2013-03-01 21:20:00,
2013-03-01 13:25:00,68.2,22.4,30.30,WSW,247,0.0,12.1,18,0.00,,,0.00,WUHU21623XXSP,2013-03-01 21:25:00,
2013-03-01 13:30:00,68.7,22.9,30.30,WSW,247,0.0,10.1,18,0.00,,,0.00,WUHU21623XXSP,2013-03-01 21:30:00,
2013-03-01 13:35:00,68.9,23.0,30.31,WSW,247,0.0,9.6,18,0.00,,,0.00,WUHU21623XXSP,2013-03-01 21:35:00,
2013-03-01 13:40:00,68.7,22.9,30.30,WSW,247,0.0,12.8,18,0.00,,,0.00,WUHU21623XXSP,2013-03-01 21:40:00,
2013-03-01 13:45:00,68.5,22.7,30.30,WSW,247,7.4,12.8,18,0.00,,,0.00,WUHU21623XXSP,2013-03-01 21:45:00,
2013-03-01 13:50:00,68.4,22.6,30.30,WSW,247,10.5,11.4,18,0.00,,,0.00,WUHU21623XXSP,2013-03-01 21:50:00,
2013-03-01 13:55:00,68.5,22.7,30.30,NE,45,0.0,11.4,18,0.00,,,0.00,WUHU21623XXSP,2013-03-01 21:55:00,
2013-03-01 14:00:00,69.6,23.6,30.29,WSW,247,2.9,10.7,18,0.00,,,0.00,WUHU21623XXSP,2013-03-01 22:00:00,
2013-03-01 14:05:00,70.0,23.9,30.29,ENE,67,0.7,10.7,18,0.00,,,0.00,WUHU21623XXSP,2013-03-01 22:05:00,
2013-03-01 14:10:00,69.3,23.3,30.29,WSW,247,2.2,10.7,18,0.00,,,0.00,WUHU21623XXSP,2013-03-01 22:10:00,
2013-03-01 14:15:00,69.4,23.4,30.29,NE,45,7.2,10.7,18,0.00,,,0.00,WUHU21623XXSP,2013-03-01 22:15:00,
2013-03-01 14:20:00,69.1,23.1,30.29,WSW,247,5.6,10.7,18,0.00,,,0.00,WUHU21623XXSP,2013-03-01 22:20:00,
2013-03-01 14:25:00,69.1,23.1,30.29,WSW,247,9.4,10.7,18,0.00,,,0.00,WUHU21623XXSP,2013-03-01 22:25:00,
2013-03-01 14:30:00,68.7,22.9,30.29,WSW,247,6.3,11.6,18,0.00,,,0.00,WUHU21623XXSP,2013-03-01 22:30:00,
2013-03-01 14:35:00,68.7,22.9,30.29,WSW,247,0.0,11.6,18,0.00,,,0.00,WUHU21623XXSP,2013-03-01 22:35:00,
2013-03-01 14:40:00,68.7,22.9,30.29,WSW,247,4.3,8.3,18,0.00,,,0.00,WUHU21623XXSP,2013-03-01 22:40:00,
2013-03-01 14:45:00,68.5,22.7,30.29,WSW,247,0.9,11.4,18,0.00,,,0.00,WUHU21623XXSP,2013-03-01 22:45:00,
2013-03-01 14:50:00,68.5,22.7,30.29,WSW,247,0.0,11.4,18,0.00,,,0.00,WUHU21623XXSP,2013-03-01 22:50:00,
2013-03-01 14:55:00,69.1,23.1,30.29,WSW,247,0.0,10.7,18,0.00,,,0.00,WUHU21623XXSP,2013-03-01 22:55:00,
2013-03-01 15:00:00,68.5,22.7,30.29,WSW,247,1.8,10.7,18,0.00,,,0.00,WUHU21623XXSP,2013-03-01 23:00:00,
2013-03-01 15:05:00,68.5,22.7,30.29,ENE,67,0.0,11.6,18,0.00,,,0.00,WUHU21623XXSP,2013-03-01 23:05:00,
2013-03-01 15:10:00,68.5,22.7,30.29,WSW,247,2.7,11.6,18,0.00,,,0.00,WUHU21623XXSP,2013-03-01 23:10:00,
2013-03-01 15:15:00,68.4,24.2,30.28,WSW,247,3.1,12.3,19,0.00,,,0.00,WUHU21623XXSP,2013-03-01 23:15:00,
2013-03-01 15:20:00,68.4,24.2,30.29,WSW,247,4.9,12.3,19,0.00,,,0.00,WUHU21623XXSP,2013-03-01 23:20:00,
2013-03-01 15:25:00,68.4,24.2,30.29,WSW,247,0.0,9.4,19,0.00,,,0.00,WUHU21623XXSP,2013-03-01 23:25:00,
2013-03-01 15:30:00,68.4,24.2,30.28,WSW,247,4.3,9.4,19,0.00,,,0.00,WUHU21623XXSP,2013-03-01 23:30:00,
2013-03-01 15:35:00,68.5,24.3,30.28,WSW,247,1.6,5.4,19,0.00,,,0.00,WUHU21623XXSP,2013-03-01 23:35:00,
2013-03-01 15:40:00,68.4,24.2,30.28,WSW,247,4.3,11.2,19,0.00,,,0.00,WUHU21623XXSP,2013-03-01 23:40:00,
2013-03-01 15:45:00,67.8,23.8,30.28,WSW,247,0.0,11.2,19,0.00,,,0.00,WUHU21623XXSP,2013-03-01 23:45:00,
2013-03-01 15:50:00,67.8,23.8,30.28,WSW,247,0.0,10.7,19,0.00,,,0.00,WUHU21623XXSP,2013-03-01 23:50:00,
2013-03-01 15:55:00,67.6,23.6,30.28,WSW,247,0.0,11.4,19,0.00,,,0.00,WUHU21623XXSP,2013-03-01 23:55:00,
2013-03-01 16:00:00,67.3,23.3,30.28,WSW,247,3.1,11.4,19,0.00,,,0.00,WUHU21623XXSP,2013-03-02 00:00:00,
2013-03-01 16:05:00,66.9,22.9,30.28,WSW,247,3.4,9.4,19,0.00,,,0.00,WUHU21623XXSP,2013-03-02 00:05:00,
2013-03-01 16:10:00,67.3,23.3,30.28,WSW,247,0.0,9.4,19,0.00,,,0.00,WUHU21623XXSP,2013-03-02 00:10:00,
2013-03-01 16:15:00,67.6,23.6,30.28,WSW,247,2.0,6.5,19,0.00,,,0.00,WUHU21623XXSP,2013-03-02 00:15:00,
2013-03-01 16:20:00,67.3,24.9,30.28,WSW,247,0.0,6.0,20,0.00,,,0.00,WUHU21623XXSP,2013-03-02 00:20:00,
2013-03-01 16:25:00,66.7,24.4,30.28,WSW,247,1.6,8.9,20,0.00,,,0.00,WUHU21623XXSP,2013-03-02 00:25:00,
2013-03-01 16:30:00,66.6,24.2,30.28,WSW,247,0.0,8.9,20,0.00,,,0.00,WUHU21623XXSP,2013-03-02 00:30:00,
2013-03-01 16:35:00,66.6,24.2,30.28,WSW,247,1.1,1.1,20,0.00,,,0.00,WUHU21623XXSP,2013-03-02 00:35:00,
2013-03-01 16:40:00,66.2,23.9,30.27,WSW,247,3.6,6.3,20,0.00,,,0.00,WUHU21623XXSP,2013-03-02 00:40:00,
2013-03-01 16:45:00,66.0,23.8,30.27,NE,45,0.0,7.8,20,0.00,,,0.00,WUHU21623XXSP,2013-03-02 00:45:00,
2013-03-01 16:50:00,66.0,23.8,30.27,WSW,247,0.0,7.8,20,0.00,,,0.00,WUHU21623XXSP,2013-03-02 00:50:00,
2013-03-01 16:55:00,65.8,23.6,30.27,WSW,247,0.0,4.7,20,0.00,,,0.00,WUHU21623XXSP,2013-03-02 00:55:00,
2013-03-01 17:00:00,65.5,23.3,30.27,WSW,247,0.0,3.1,20,0.00,,,0.00,WUHU21623XXSP,2013-03-02 01:00:00,
2013-03-01 17:05:00,65.1,23.0,30.27,WSW,247,0.0,4.3,20,0.00,,,0.00,WUHU21623XXSP,2013-03-02 01:05:00,
2013-03-01 17:10:00,64.9,23.9,30.27,WSW,247,0.0,4.3,21,0.00,,,0.00,WUHU21623XXSP,2013-03-02 01:10:00,
2013-03-01 17:15:00,64.8,23.7,30.27,WSW,247,0.0,1.6,21,0.00,,,0.00,WUHU21623XXSP,2013-03-02 01:15:00,
2013-03-01 17:20:00,64.6,24.6,30.27,WSW,247,0.0,1.6,22,0.00,,,0.00,WUHU21623XXSP,2013-03-02 01:20:00,
2013-03-01 17:25:00,64.6,24.6,30.27,WSW,247,0.0,0.9,22,0.00,,,0.00,WUHU21623XXSP,2013-03-02 01:25:00,
2013-03-01 17:30:00,64.4,24.4,30.27,NE,45,0.0,0.0,22,0.00,,,0.00,WUHU21623XXSP,2013-03-02 01:30:00,
2013-03-01 17:35:00,63.7,22.9,30.28,NE,45,0.0,0.0,21,0.00,,,0.00,WUHU21623XXSP,2013-03-02 01:35:00,
2013-03-01 17:40:00,63.1,22.4,30.28,NE,45,0.0,0.0,21,0.00,,,0.00,WUHU21623XXSP,2013-03-02 01:40:00,
2013-03-01 17:45:00,62.8,22.1,30.27,NE,45,0.0,0.0,21,0.00,,,0.00,WUHU21623XXSP,2013-03-02 01:45:00,
2013-03-01 17:50:00,62.4,21.8,30.28,NE,45,0.0,0.0,21,0.00,,,0.00,WUHU21623XXSP,2013-03-02 01:50:00,
2013-03-01 17:55:00,61.9,23.3,30.27,NE,45,0.0,0.0,23,0.00,,,0.00,WUHU21623XXSP,2013-03-02 01:55:00,
2013-03-01 18:00:00,61.3,22.9,30.28,NE,45,0.0,0.0,23,0.00,,,0.00,WUHU21623XXSP,2013-03-02 02:00:00,
2013-03-01 18:05:00,61.0,22.6,30.28,NE,45,0.0,0.0,23,0.00,,,0.00,WUHU21623XXSP,2013-03-02 02:05:00,
2013-03-01 18:10:00,60.4,22.1,30.28,NE,45,0.0,0.0,23,0.00,,,0.00,WUHU21623XXSP,2013-03-02 02:10:00,
2013-03-01 18:15:00,60.3,22.9,30.28,NE,45,0.0,0.0,24,0.00,,,0.00,WUHU21623XXSP,2013-03-02 02:15:00,
2013-03-01 18:20:00,60.1,22.8,30.28,NE,45,0.0,0.0,24,0.00,,,0.00,WUHU21623XXSP,2013-03-02 02:20:00,
2013-03-01 18:25:00,59.5,22.3,30.28,NE,45,0.0,0.0,24,0.00,,,0.00,WUHU21623XXSP,2013-03-02 02:25:00,
2013-03-01 18:31:00,58.8,21.7,30.28,NE,45,0.0,0.0,24,0.00,,,0.00,WUHU21623XXSP,2013-03-02 02:31:00,
2013-03-01 18:36:00,58.8,21.7,30.28,NE,45,0.0,0.0,24,0.00,,,0.00,WUHU21623XXSP,2013-03-02 02:36:00,
2013-03-01 18:41:00,58.8,21.7,30.28,NE,45,0.0,0.0,24,0.00,,,0.00,WUHU21623XXSP,2013-03-02 02:41:00,
2013-03-01 18:46:00,58.6,21.5,30.28,NE,45,0.0,0.0,24,0.00,,,0.00,WUHU21623XXSP,2013-03-02 02:46:00,
2013-03-01 18:51:00,58.6,21.7,30.28,NE,45,0.0,0.0,24,0.00,,,0.00,WUHU21623XXSP,2013-03-02 02:51:00,
2013-03-01 18:56:00,58.8,21.7,30.28,NE,45,0.0,0.0,24,0.00,,,0.00,WUHU21623XXSP,2013-03-02 02:56:00,
2013-03-01 19:01:00,58.8,21.7,30.28,NE,45,0.0,0.0,24,0.00,,,0.00,WUHU21623XXSP,2013-03-02 03:01:00,
2013-03-01 19:06:00,58.6,21.5,30.28,NE,45,0.0,0.0,24,0.00,,,0.00,WUHU21623XXSP,2013-03-02 03:06:00,
2013-03-01 19:11:00,58.5,22.4,30.28,NE,45,0.0,0.0,25,0.00,,,0.00,WUHU21623XXSP,2013-03-02 03:11:00,
2013-03-01 19:16:00,57.9,21.9,30.28,NE,45,0.0,0.0,25,0.00,,,0.00,WUHU21623XXSP,2013-03-02 03:16:00,
2013-03-01 19:21:00,57.9,21.9,30.28,NE,45,0.0,0.0,25,0.00,,,0.00,WUHU21623XXSP,2013-03-02 03:21:00,
2013-03-01 19:26:00,57.9,21.9,30.29,NE,45,0.0,0.0,25,0.00,,,0.00,WUHU21623XXSP,2013-03-02 03:26:00,
2013-03-01 19:31:00,57.9,21.9,30.29,NE,45,0.0,0.0,25,0.00,,,0.00,WUHU21623XXSP,2013-03-02 03:31:00,
2013-03-01 19:36:00,57.7,21.7,30.29,NE,45,0.0,0.0,25,0.00,,,0.00,WUHU21623XXSP,2013-03-02 03:36:00,
2013-03-01 19:41:00,57.0,21.1,30.29,NE,45,0.0,0.0,25,0.00,,,0.00,WUHU21623XXSP,2013-03-02 03:41:00,
2013-03-01 19:46:00,56.8,21.9,30.29,NE,45,0.0,0.0,26,0.00,,,0.00,WUHU21623XXSP,2013-03-02 03:46:00,
2013-03-01 19:51:00,56.8,21.9,30.29,NE,45,0.0,0.0,26,0.00,,,0.00,WUHU21623XXSP,2013-03-02 03:51:00,
2013-03-01 19:56:00,56.8,21.9,30.29,NE,45,0.0,0.0,26,0.00,,,0.00,WUHU21623XXSP,2013-03-02 03:56:00,
2013-03-01 20:01:00,56.3,21.5,30.29,NE,45,0.0,0.0,26,0.00,,,0.00,WUHU21623XXSP,2013-03-02 04:01:00,
2013-03-01 20:06:00,55.8,21.0,30.29,NE,45,0.0,0.0,26,0.00,,,0.00,WUHU21623XXSP,2013-03-02 04:06:00,
2013-03-01 20:11:00,55.6,20.8,30.29,NE,45,0.0,0.0,26,0.00,,,0.00,WUHU21623XXSP,2013-03-02 04:11:00,
2013-03-01 20:16:00,55.8,21.0,30.29,NE,45,0.0,0.0,26,0.00,,,0.00,WUHU21623XXSP,2013-03-02 04:16:00,
2013-03-01 20:21:00,55.6,20.8,30.29,NE,45,0.0,0.0,26,0.00,,,0.00,WUHU21623XXSP,2013-03-02 04:21:00,
2013-03-01 20:26:00,55.4,20.7,30.29,NE,45,0.0,0.0,26,0.00,,,0.00,WUHU21623XXSP,2013-03-02 04:26:00,
2013-03-01 20:31:00,55.2,21.5,30.29,NE,45,0.0,0.0,27,0.00,,,0.00,WUHU21623XXSP,2013-03-02 04:31:00,
2013-03-01 20:36:00,55.0,21.3,30.29,NE,45,0.0,0.0,27,0.00,,,0.00,WUHU21623XXSP,2013-03-02 04:36:00,
2013-03-01 20:41:00,55.2,21.5,30.29,NE,45,0.0,0.0,27,0.00,,,0.00,WUHU21623XXSP,2013-03-02 04:41:00,
2013-03-01 20:46:00,55.2,21.5,30.29,NE,45,0.0,0.0,27,0.00,,,0.00,WUHU21623XXSP,2013-03-02 04:46:00,
2013-03-01 20:51:00,55.4,20.7,30.29,NE,45,0.0,0.0,26,0.00,,,0.00,WUHU21623XXSP,2013-03-02 04:51:00,
2013-03-01 20:56:00,55.4,21.6,30.29,NE,45,0.0,0.0,27,0.00,,,0.00,WUHU21623XXSP,2013-03-02 04:56:00,
2013-03-01 21:00:00,55.4,20.7,30.29,NE,45,0.0,0.0,26,0.00,,,0.00,WUHU21623XXSP,2013-03-02 05:00:00,
2013-03-01 21:05:00,55.4,20.7,30.30,NE,45,0.0,0.0,26,0.00,,,0.00,WUHU21623XXSP,2013-03-02 05:05:00,
2013-03-01 21:10:00,55.2,21.5,30.30,NE,45,0.0,0.0,27,0.00,,,0.00,WUHU21623XXSP,2013-03-02 05:10:00,
2013-03-01 21:15:00,55.2,21.5,30.29,NE,45,0.0,0.0,27,0.00,,,0.00,WUHU21623XXSP,2013-03-02 05:15:00,
2013-03-01 21:20:00,54.5,20.9,30.30,NE,45,0.0,0.0,27,0.00,,,0.00,WUHU21623XXSP,2013-03-02 05:20:00,
2013-03-01 21:25:00,54.1,20.6,30.29,NE,45,0.0,0.0,27,0.00,,,0.00,WUHU21623XXSP,2013-03-02 05:25:00,
2013-03-01 21:30:00,53.8,20.3,30.29,NE,45,0.0,0.0,27,0.00,,,0.00,WUHU21623XXSP,2013-03-02 05:30:00,
2013-03-01 21:35:00,53.4,20.9,30.30,NE,45,0.0,0.0,28,0.00,,,0.00,WUHU21623XXSP,2013-03-02 05:35:00,
2013-03-01 21:40:00,53.4,20.9,30.29,NE,45,0.0,0.0,28,0.00,,,0.00,WUHU21623XXSP,2013-03-02 05:40:00,
2013-03-01 21:45:00,52.9,20.4,30.30,NE,45,0.0,0.0,28,0.00,,,0.00,WUHU21623XXSP,2013-03-02 05:45:00,
2013-03-01 21:50:00,52.9,20.4,30.29,NE,45,0.0,0.0,28,0.00,,,0.00,WUHU21623XXSP,2013-03-02 05:50:00,
2013-03-01 21:55:00,52.5,20.1,30.29,NE,45,0.0,0.0,28,0.00,,,0.00,WUHU21623XXSP,2013-03-02 05:55:00,
2013-03-01 22:00:00,52.3,20.0,30.29,NE,45,0.0,0.0,28,0.00,,,0.00,WUHU21623XXSP,2013-03-02 06:00:00,
2013-03-01 22:05:00,52.2,19.8,30.29,NE,45,0.0,0.0,28,0.00,,,0.00,WUHU21623XXSP,2013-03-02 06:05:00,
2013-03-01 22:10:00,52.2,20.8,30.30,NE,45,0.0,0.0,29,0.00,,,0.00,WUHU21623XXSP,2013-03-02 06:10:00,
2013-03-01 22:15:00,52.3,20.9,30.30,NE,45,0.0,0.0,29,0.00,,,0.00,WUHU21623XXSP,2013-03-02 06:15:00,
2013-03-01 22:20:00,52.3,20.9,30.30,NE,45,0.0,0.0,29,0.00,,,0.00,WUHU21623XXSP,2013-03-02 06:20:00,
2013-03-01 22:25:00,52.3,20.9,30.30,NE,45,0.0,0.0,29,0.00,,,0.00,WUHU21623XXSP,2013-03-02 06:25:00,
2013-03-01 22:30:00,52.3,20.9,30.30,NE,45,0.0,0.0,29,0.00,,,0.00,WUHU21623XXSP,2013-03-02 06:30:00,
2013-03-01 22:35:00,52.3,20.9,30.30,NE,45,0.0,0.0,29,0.00,,,0.00,WUHU21623XXSP,2013-03-02 06:35:00,
2013-03-01 22:40:00,52.2,20.8,30.30,NE,45,0.0,0.0,29,0.00,,,0.00,WUHU21623XXSP,2013-03-02 06:40:00,
2013-03-01 22:45:00,52.3,20.9,30.30,NE,45,0.0,0.0,29,0.00,,,0.00,WUHU21623XXSP,2013-03-02 06:45:00,
2013-03-01 22:50:00,52.3,20.9,30.30,NE,45,0.0,0.0,29,0.00,,,0.00,WUHU21623XXSP,2013-03-02 06:50:00,
2013-03-01 22:55:00,52.3,20.9,30.30,NE,45,0.0,0.0,29,0.00,,,0.00,WUHU21623XXSP,2013-03-02 06:55:00,
2013-03-01 23:00:00,52.5,20.1,30.30,NE,45,0.0,0.0,28,0.00,,,0.00,WUHU21623XXSP,2013-03-02 07:00:00,
2013-03-01 23:05:00,52.5,20.1,30.30,NE,45,0.0,0.0,28,0.00,,,0.00,WUHU21623XXSP,2013-03-02 07:05:00,
2013-03-01 23:10:00,52.5,20.1,30.30,NE,45,0.0,0.0,28,0.00,,,0.00,WUHU21623XXSP,2013-03-02 07:10:00,
2013-03-01 23:15:00,52.3,20.0,30.30,NE,45,0.0,0.0,28,0.00,,,0.00,WUHU21623XXSP,2013-03-02 07:15:00,
2013-03-01 23:20:00,52.3,20.0,30.30,NE,45,0.0,0.0,28,0.00,,,0.00,WUHU21623XXSP,2013-03-02 07:20:00,
2013-03-01 23:25:00,52.3,20.9,30.30,NE,45,0.0,0.0,29,0.00,,,0.00,WUHU21623XXSP,2013-03-02 07:25:00,
2013-03-01 23:30:00,52.3,20.0,30.30,NE,45,0.0,0.0,28,0.00,,,0.00,WUHU21623XXSP,2013-03-02 07:30:00,
2013-03-01 23:35:00,52.5,21.1,30.30,NE,45,0.0,0.0,29,0.00,,,0.00,WUHU21623XXSP,2013-03-02 07:35:00,
2013-03-01 23:40:00,52.3,20.9,30.30,NE,45,0.0,0.0,29,0.00,,,0.00,WUHU21623XXSP,2013-03-02 07:40:00,
2013-03-01 23:45:00,52.0,20.6,30.30,NE,45,0.0,0.0,29,0.00,,,0.00,WUHU21623XXSP,2013-03-02 07:45:00,
2013-03-01 23:50:00,51.8,20.4,30.30,NE,45,0.0,0.0,29,0.00,,,0.00,WUHU21623XXSP,2013-03-02 07:50:00,
2013-03-01 23:55:00,51.4,20.1,30.30,NE,45,0.0,0.0,29,0.00,,,0.00,WUHU21623XXSP,2013-03-02 07:55:00,